Location: Camp Creek
(33.9000°N, 111.8167°W)
Time: 09:48:09
(UTC-07:00)

Cosmos 1656 - Visible Passes

Search period start: 16 December 2017 00:00
Search period end: 26 December 2017 00:00
Orbit: 800 x 848 km, 71.1° (Epoch: 15 December)

Date Brightness Start Highest point End Pass type
(mag) Time Alt. Az. Time Alt. Az. Time Alt. Az.
16 Dec 5.8 04:32:21 17° SSE 04:32:21 17° SSE 04:33:32 10° SSE visible
16 Dec 5.6 19:07:38 10° WSW 19:12:07 25° WNW 19:16:36 10° N visible
17 Dec 5.4 18:46:50 10° WSW 18:51:37 29° WNW 18:56:22 10° N visible
18 Dec 5.2 18:26:06 10° SW 18:31:07 34° WNW 18:36:07 10° N visible
19 Dec 4.9 18:05:26 10° SW 18:10:38 40° WNW 18:15:48 10° N visible
20 Dec 4.7 17:44:48 10° SW 17:50:10 47° WNW 17:55:29 10° N visible
24 Dec 6.3 18:10:57 10° WNW 18:12:40 11° NW 18:14:24 10° NW visible
25 Dec 6.1 17:49:26 10° W 17:52:06 14° NW 17:54:46 10° NNW visible
